sat.trackr.live / text

‹ back to catalog

KINEIS-1E

NORAD 60083 · 2024-114E

PAYLOAD ACTIVE UNKNOWN

§ Identity

Operator
Country
FR
Launch date
2024-06-20
Launch site
RLLB
Launch vehicle
Mass (kg)
RCS (m²)

External: N2YO · Heavens-Above · Gunter

§ Orbital elements

Epoch: 2026-05-25T04:39:23.677056Z

Period
97.26 min
Inclination
97.8954°
Eccentricity
0.0001189
Mean motion
14.80581265 rev/d
Perigee alt
626.7 km
Apogee alt
628.3 km
Semi-major
7,005.6 km
B*
-7.8424e-6
RAAN
168.9693°
Arg perigee
298.9601°
Mean anomaly
61.1492°
Rev number
10,398

§ Raw data

KINEIS-1E1 60083U 24114E   26145.19402404 -.00000112  00000+0 -78424-5 0  99962 60083  97.8954 168.9693 0001189 298.9601  61.1492 14.80581265103981

JSON: /api/v1/satellites/60083 · /tle

For live sub-satellite position, see the globe view (requires WebGL).

§ Visibility from observer

Set your observer location to see the next 7 days of passes ≥ 10°. The values pass through the URL so the page stays shareable.

No JS? Fill the form by hand. The geolocation button needs JavaScript.

§ Radio — SatNOGS DB

ModeDescriptionDownlinkUplink
FSK AX.100 Mode 5 Mode U - Telemetry 400.657 MHz
BPSK S-band telemetry 2.266 GHz

2 transmitters · refreshed weekly from db.satnogs.org